BEIDOU-3 M21

Last updated on Mon Oct 13 2025 00:02:34 GMT+0000 (Coordinated Universal Time)

1 44794U 19078B 25285.14631057 -.00000044 00000+0 00000+0 0 9999 2 44794 54.1360 308.5135 0002869 8.9630 351.0796 1.86227647 40036
UTC large
Height (km)
Speed (km/s)
/
Latitude / Longitude
Inclination (degrees)
Orbital Period (minutes)
Azimuth
Elevation
Range (km)
Doppler Factor

Next 0 passes for location: London (51.5072 / 0.1276)

Sorry there are no passes over London.